Weather History for Fort Worth Alliance, TX

Change the Weather History Date:

Saturday, July 27, 2013

  Actual Average Record
Temperature  
Mean Temperature 28 °C -  
Max Temperature 32 °C 35 °C 41 °C (2008)
Min Temperature 23 °C 22 °C 20 °C (2004)
Cooling Degree Days 16    
Growing Degree Days 32 (Base 50)    
Moisture  
Dew Point 18 °C    
Average Humidity 62    
Maximum Humidity 83    
Minimum Humidity 35    
Precipitation  
Precipitation 0.00 mm - - ()
Sea Level Pressure  
Sea Level Pressure 1014 hPa    
Wind  
Wind Speed 14 km/h (NE)    
Max Wind Speed 21 km/h    
Max Gust Speed 32 km/h    
Visibility 16 kilometers    
Events      
Averages and records for this station are not official NWS values.
T = Trace of Precipitation, MM = Missing Value Source: NWS Daily Summary

Daily Weather History Graph

Daily Weather History Graph

Search for Another Location

Airport:

Trip Planner

Search our weather history database for the weather conditions in past years. The results will help you decide how hot, cold, wet, or windy it might be!

Date:

Astronomy

Jul. 27, 2013 Rise Set
Actual Time 6:39 AM CDT 8:31 PM CDT
Civil Twilight 6:12 AM CDT 8:58 PM CDT
Nautical Twilight 5:39 AM CDT 9:31 PM CDT
Astronomical Twilight 5:04 AM CDT 10:06 PM CDT
Moon 11:42 PM CDT (7/27) 11:59 AM CDT (7/27)
Length of Visible Light 14h 46m
Length of Day
13h 52m
Waning Gibbous, 70% of the Moon is Illuminated
Jul 27
Waning Gibbous
Jul 29
Last Quarter
Aug 6
New
Aug 14
First Quarter
Aug 20
Full

Hourly Weather History & Observations

Time (CDT) Temp. Heat Index Dew Point Humidity Pressure Visibility Wind Dir Wind Speed Gust Speed Precip Events Conditions
12:36 AM 25.0 °C - 22.0 °C 83% 1015.5 hPa 16.1 km North 20.4 km/h / 5.7 m/s - N/A   Overcast
12:53 AM 25.0 °C - 20.6 °C 76% 1013.9 hPa 16.1 km NE 13.0 km/h / 3.6 m/s - N/A   Overcast
1:53 AM 24.4 °C - 21.1 °C 82% 1013.7 hPa 16.1 km NNE 14.8 km/h / 4.1 m/s - N/A   Overcast
2:53 AM 23.3 °C - 20.0 °C 82% 1013.8 hPa 16.1 km North 16.7 km/h / 4.6 m/s - N/A   Overcast
3:53 AM 23.3 °C - 20.0 °C 82% 1014.0 hPa 16.1 km North 9.3 km/h / 2.6 m/s - N/A   Mostly Cloudy
4:53 AM 22.8 °C - 19.4 °C 81% 1013.8 hPa 16.1 km North 20.4 km/h / 5.7 m/s - N/A   Mostly Cloudy
5:53 AM 22.8 °C - 19.4 °C 81% 1013.9 hPa 16.1 km North 18.5 km/h / 5.1 m/s - N/A   Overcast
6:53 AM 22.8 °C - 18.9 °C 79% 1014.4 hPa 16.1 km NNE 18.5 km/h / 5.1 m/s - N/A   Mostly Cloudy
7:53 AM 23.3 °C - 18.9 °C 76% 1015.2 hPa 16.1 km NNE 20.4 km/h / 5.7 m/s - N/A   Mostly Cloudy
8:53 AM 23.3 °C - 17.8 °C 71% 1015.6 hPa 16.1 km NE 18.5 km/h / 5.1 m/s 31.5 km/h / 8.7 m/s N/A   Mostly Cloudy
9:53 AM 25.0 °C - 18.3 °C 66% 1015.7 hPa 16.1 km NNE 18.5 km/h / 5.1 m/s 31.5 km/h / 8.7 m/s N/A   Mostly Cloudy
10:17 AM 26.0 °C - 18.0 °C 61% 1017.2 hPa 16.1 km NE 18.5 km/h / 5.1 m/s - N/A   Scattered Clouds
10:53 AM 26.7 °C 27.7 °C 18.3 °C 60% 1015.7 hPa 16.1 km NNE 18.5 km/h / 5.1 m/s 27.8 km/h / 7.7 m/s N/A   Scattered Clouds
11:53 AM 27.8 °C 28.8 °C 18.3 °C 56% 1015.7 hPa 16.1 km North 13.0 km/h / 3.6 m/s - N/A   Partly Cloudy
12:53 PM 28.3 °C 29.2 °C 18.3 °C 54% 1015.4 hPa 16.1 km Variable 9.3 km/h / 2.6 m/s 25.9 km/h / 7.2 m/s N/A   Partly Cloudy
1:53 PM 30.6 °C 31.6 °C 18.3 °C 48% 1014.8 hPa 16.1 km NNE 11.1 km/h / 3.1 m/s - N/A   Partly Cloudy
2:53 PM 31.1 °C 31.8 °C 17.8 °C 45% 1014.1 hPa 16.1 km Variable 11.1 km/h / 3.1 m/s 27.8 km/h / 7.7 m/s N/A   Partly Cloudy
3:53 PM 31.7 °C 32.4 °C 17.8 °C 43% 1013.4 hPa 16.1 km East 13.0 km/h / 3.6 m/s - N/A   Partly Cloudy
4:53 PM 32.2 °C 32.0 °C 15.6 °C 37% 1012.8 hPa 16.1 km NE 13.0 km/h / 3.6 m/s - N/A   Partly Cloudy
5:53 PM 32.2 °C 31.7 °C 15.0 °C 35% 1012.3 hPa 16.1 km ENE 13.0 km/h / 3.6 m/s - N/A   Clear
6:53 PM 31.1 °C 30.9 °C 15.6 °C 39% 1011.6 hPa 16.1 km East 11.1 km/h / 3.1 m/s - N/A   Clear
7:53 PM 30.0 °C 29.8 °C 15.6 °C 41% 1011.5 hPa 16.1 km ENE 11.1 km/h / 3.1 m/s - N/A   Clear
8:53 PM 28.3 °C 28.4 °C 15.6 °C 46% 1011.8 hPa 16.1 km ENE 7.4 km/h / 2.1 m/s - N/A   Clear
9:53 PM 26.1 °C - 16.7 °C 56% 1012.8 hPa 16.1 km ENE 7.4 km/h / 2.1 m/s - N/A   Clear
10:53 PM 25.0 °C - 17.8 °C 64% 1013.5 hPa 16.1 km Calm Calm - N/A   Clear
11:53 PM 23.9 °C - 17.8 °C 69% 1013.8 hPa 16.1 km Calm Calm - N/A   Clear